Weather History for KSGT - July, 2013

Change the Weather History Date:

Tuesday, July 23, 2013

  Actual Average (KPBF) Record (KPBF)
Temperature  
Mean Temperature 79 °F 82 °F  
Max Temperature 87 °F 92 °F 110 °F (1924)
Min Temperature 71 °F 72 °F 56 °F (1946)
Degree Days  
Heating Degree Days 0 0  
Month to date heating degree days 0  
Since 1 June heating degree days 0  
Since 1 July heating degree days 0  
Cooling Degree Days 14 17  
Month to date cooling degree days 390  
Year to date cooling degree days 1119  
Since 1 June cooling degree days 812  
Growing Degree Days 29 (Base 50)    
Moisture  
Dew Point 70 °F    
Average Humidity 75    
Maximum Humidity 83    
Minimum Humidity 58    
Precipitation  
Precipitation 0.14 in 0.13 in 1.80 in (1971)
Month to date precipitation 2.93  
Year to date precipitation 29.71  
Snow  
Snow 0.00 in 0.00 in - ()
Month to date snowfall 0.0  
Since 1 June snowfall 0.0  
Since 1 July snowfall 0.0  
Snow Depth -    
Sea Level Pressure  
Sea Level Pressure 29.91 in    
Wind  
Wind Speed 9 mph (SSW)    
Max Wind Speed 25 mph    
Max Gust Speed 30 mph    
Visibility 10 miles    
Events Thunderstorm    
T = Trace of Precipitation, MM = Missing Value Source: NWS Daily Summary

Daily Weather History Graph

Daily Weather History Graph

Search for Another Location

Airport or City:

Trip Planner

Search our weather history database for the weather conditions in past years. The results will help you decide how hot, cold, wet, or windy it might be!

Date:

Astronomy

Jul. 23, 2013 Rise Set
Actual Time 6:10 AM CDT 8:14 PM CDT
Civil Twilight 5:41 AM CDT 8:43 PM CDT
Nautical Twilight 5:07 AM CDT 9:17 PM CDT
Astronomical Twilight 4:30 AM CDT 9:54 PM CDT
Moon 8:50 PM CDT (7/23) 7:13 AM CDT (7/23)
Length of Visible Light 15h 01m
Length of Day
14h 04m
Full, 99% of the Moon is Illuminated
Jul 23
Full
Jul 29
Last Quarter
Aug 6
New
Aug 14
First Quarter
Aug 20
Full

Hourly Weather History & Observations

Time (CDT) Temp. Heat Index Dew Point Humidity Pressure Visibility Wind Dir Wind Speed Gust Speed Precip Events Conditions
12:15 AM 77.0 °F - 71.6 °F 83% 29.93 in 10.0 mi SE 5.8 mph - N/A   Clear
12:36 AM 77.0 °F - 71.6 °F 83% 29.93 in 10.0 mi SSE 4.6 mph - N/A   Clear
12:55 AM 77.0 °F - 71.6 °F 83% 29.93 in 10.0 mi South 5.8 mph - N/A   Clear
1:15 AM 78.8 °F - 71.6 °F 78% 29.93 in 10.0 mi South 5.8 mph - N/A   Clear
1:35 AM 78.8 °F - 71.6 °F 78% 29.93 in 10.0 mi South 5.8 mph - N/A   Clear
1:55 AM 77.0 °F - 69.8 °F 78% 29.92 in 10.0 mi South 5.8 mph - N/A   Clear
2:15 AM 77.0 °F - 69.8 °F 78% 29.92 in 10.0 mi South 6.9 mph - N/A   Clear
2:35 AM 77.0 °F - 69.8 °F 78% 29.91 in 10.0 mi South 6.9 mph - N/A   Clear
2:55 AM 77.0 °F - 69.8 °F 78% 29.92 in 10.0 mi SSW 5.8 mph - N/A   Clear
3:15 AM 77.0 °F - 69.8 °F 78% 29.92 in 10.0 mi SSW 5.8 mph - N/A   Clear
3:36 AM 77.0 °F - 69.8 °F 78% 29.91 in 10.0 mi SSW 6.9 mph - N/A   Clear
3:55 AM 77.0 °F - 69.8 °F 78% 29.91 in 10.0 mi SSW 8.1 mph - N/A   Clear
4:15 AM 77.0 °F - 69.8 °F 78% 29.90 in 10.0 mi SW 8.1 mph - N/A   Clear
4:35 AM 77.0 °F - 69.8 °F 78% 29.90 in 10.0 mi SSW 9.2 mph - N/A   Clear
4:55 AM 78.8 °F - 69.8 °F 74% 29.90 in 10.0 mi SW 8.1 mph - N/A   Clear
5:15 AM 77.0 °F - 69.8 °F 78% 29.90 in 10.0 mi SSW 8.1 mph - N/A   Clear
5:35 AM 77.0 °F - 69.8 °F 78% 29.90 in 10.0 mi SSW 9.2 mph - N/A   Clear
5:55 AM 77.0 °F - 69.8 °F 78% 29.90 in 10.0 mi SSW 10.4 mph - N/A   Clear
6:15 AM 77.0 °F - 69.8 °F 78% 29.91 in 10.0 mi SW 10.4 mph - N/A   Clear
6:35 AM 77.0 °F - 69.8 °F 78% 29.91 in 10.0 mi SW 11.5 mph - N/A   Clear
6:55 AM 77.0 °F - 69.8 °F 78% 29.92 in 10.0 mi SW 11.5 mph - N/A   Clear
7:15 AM 78.8 °F - 71.6 °F 78% 29.93 in 10.0 mi SW 11.5 mph - N/A   Clear
7:35 AM 78.8 °F - 71.6 °F 78% 29.93 in 10.0 mi SW 11.5 mph - N/A   Clear
7:55 AM 80.6 °F 84.6 °F 71.6 °F 74% 29.94 in 10.0 mi SW 12.7 mph - N/A   Clear
8:15 AM 82.4 °F 88.2 °F 73.4 °F 74% 29.94 in 10.0 mi WSW 13.8 mph - N/A   Partly Cloudy
8:35 AM 82.4 °F 88.2 °F 73.4 °F 74% 29.94 in 10.0 mi WSW 13.8 mph 20.7 mph N/A   Partly Cloudy
8:55 AM 84.2 °F 90.9 °F 73.4 °F 70% 29.94 in 10.0 mi WSW 12.7 mph - N/A   Partly Cloudy
9:15 AM 84.2 °F 90.9 °F 73.4 °F 70% 29.95 in 10.0 mi West 15.0 mph 20.7 mph N/A   Clear
9:35 AM 87.8 °F 95.6 °F 73.4 °F 62% 29.94 in 10.0 mi West 15.0 mph - N/A   Clear
9:55 AM 86.0 °F 93.4 °F 73.4 °F 66% 29.96 in 10.0 mi West 10.4 mph - N/A   Partly Cloudy
10:15 AM 78.8 °F - 66.2 °F 65% 29.98 in 10.0 mi NE 25.3 mph 29.9 mph N/A   Mostly Cloudy
10:35 AM 75.2 °F - 64.4 °F 69% 30.00 in 10.0 mi NE 12.7 mph - N/A Thunderstorm Overcast
10:55 AM 73.4 °F - 64.4 °F 73% 30.00 in 10.0 mi NE 16.1 mph - 0.01 in Thunderstorm Thunderstorm
11:15 AM 71.6 °F - 64.4 °F 78% 29.99 in 10.0 mi ENE 12.7 mph - 0.12 in Thunderstorm Thunderstorm
11:35 AM 73.4 °F - 66.2 °F 78% 29.98 in 10.0 mi ENE 11.5 mph - 0.13 in   Mostly Cloudy
11:55 AM 73.4 °F - 68.0 °F 83% 29.98 in 10.0 mi ENE 11.5 mph - 0.13 in   Mostly Cloudy
12:15 PM 75.2 °F - 68.0 °F 78% 29.97 in 10.0 mi East 11.5 mph - N/A   Overcast
12:35 PM 77.0 °F - 69.8 °F 78% 29.95 in 10.0 mi ESE 9.2 mph - N/A   Scattered Clouds
12:55 PM 78.8 °F - 69.8 °F 74% 29.94 in 10.0 mi SSE 11.5 mph - N/A   Clear
1:15 PM - - - N/A% 29.92 in 10.0 mi South 13.8 mph - N/A   Clear
1:35 PM - - - N/A% 29.92 in 10.0 mi South 13.8 mph - N/A   Clear
1:55 PM - - - N/A% 29.91 in 10.0 mi South 13.8 mph - N/A   Clear
2:15 PM - - - N/A% 29.91 in 10.0 mi South 13.8 mph - N/A   Clear
2:35 PM 84.2 °F 89.6 °F 71.6 °F 66% 29.90 in 10.0 mi SSW 12.7 mph - N/A   Clear
2:56 PM 84.2 °F 89.6 °F 71.6 °F 66% 29.90 in 10.0 mi SSW 12.7 mph - N/A   Clear
3:15 PM 86.0 °F 91.8 °F 71.6 °F 62% 29.88 in 10.0 mi South 16.1 mph - N/A   Clear
3:35 PM - - - N/A% 29.87 in 10.0 mi SSW 17.3 mph - N/A   Clear
3:55 PM - - - N/A% 29.86 in 10.0 mi South 13.8 mph - N/A   Clear
4:15 PM - - - N/A% 29.86 in 10.0 mi SSW 12.7 mph - N/A   Clear
4:35 PM 87.8 °F 93.8 °F 71.6 °F 58% 29.86 in 10.0 mi SSW 10.4 mph - N/A   Clear
4:55 PM 87.8 °F 95.6 °F 73.4 °F 62% 29.87 in 10.0 mi SW 10.4 mph - N/A   Clear
5:15 PM 87.8 °F 95.6 °F 73.4 °F 62% 29.88 in 10.0 mi SW 8.1 mph - N/A   Clear
5:35 PM 86.0 °F 93.4 °F 73.4 °F 66% 29.89 in 10.0 mi WSW 8.1 mph - N/A   Clear
5:55 PM 84.2 °F 90.9 °F 73.4 °F 70% 29.89 in 10.0 mi SW 9.2 mph - N/A   Clear
6:15 PM 82.4 °F 87.2 °F 71.6 °F 70% 29.90 in 10.0 mi West 11.5 mph - N/A   Clear
6:35 PM 82.4 °F 87.2 °F 71.6 °F 70% 29.87 in 10.0 mi SW 15.0 mph - N/A   Partly Cloudy
6:56 PM 80.6 °F 83.9 °F 69.8 °F 70% 29.84 in 10.0 mi SSW 16.1 mph - N/A   Partly Cloudy
7:15 PM - - - N/A% 29.81 in 10.0 mi South 12.7 mph - N/A   Partly Cloudy
7:36 PM - - - N/A% 29.83 in 10.0 mi South 10.4 mph - N/A   Partly Cloudy
7:55 PM 78.8 °F - 69.8 °F 74% 29.88 in 10.0 mi NNE 5.8 mph - N/A   Scattered Clouds
8:15 PM 78.8 °F - 68.0 °F 69% 29.89 in 10.0 mi NW 8.1 mph - N/A   Partly Cloudy
8:35 PM 77.0 °F - 69.8 °F 78% 29.88 in 10.0 mi WNW 4.6 mph - N/A   Clear
8:55 PM 77.0 °F - 66.2 °F 69% 29.90 in 10.0 mi NNW 5.8 mph - N/A   Clear
9:16 PM 75.2 °F - 68.0 °F 78% 29.93 in 10.0 mi North 6.9 mph - N/A   Clear
9:35 PM 75.2 °F - 69.8 °F 83% 29.93 in 10.0 mi WNW 3.5 mph - N/A   Partly Cloudy
9:55 PM 75.2 °F - 69.8 °F 83% 29.95 in 10.0 mi Calm Calm - N/A   Clear
10:15 PM 75.2 °F - 69.8 °F 83% 29.94 in 10.0 mi West 8.1 mph - N/A   Partly Cloudy
10:35 PM 75.2 °F - 69.8 °F 83% 29.94 in 10.0 mi West 9.2 mph - N/A   Mostly Cloudy
10:55 PM 75.2 °F - 69.8 °F 83% 29.93 in 10.0 mi WSW 4.6 mph - N/A   Partly Cloudy
11:15 PM 75.2 °F - 69.8 °F 83% 29.92 in 10.0 mi WSW 9.2 mph - N/A   Partly Cloudy
11:36 PM 75.2 °F - 69.8 °F 83% 29.90 in 10.0 mi SW 10.4 mph - N/A   Clear
11:55 PM 75.2 °F - 69.8 °F 83% 29.84 in 10.0 mi SSW 18.4 mph - N/A   Mostly Cloudy